Total_Precipitation_Accumulation
1.73 1.81 1.90 2.04 1.94 1.87 1.86 1.82 1.75 1.75 1.86 1.88 1.86 1.92 1.93 1.91 1.92 1.97 1.95 1.89 1.88 1.82 1.76 1.76 1.74 1.75 1.85 1.85 1.80 1.75 1.70 1.82 1.84 1.12 0.84 0.85 0.97 1.02 1.03 0.94 0.83 0.83 0.89
1.69 1.74 1.81 1.96 2.02 1.93 1.90 1.85 1.72 1.64 1.70 1.81 1.87 1.92 2.01 2.05 2.01 2.03 1.99 1.94 2.00 1.97 1.84 1.78 1.74 1.75 1.82 1.86 1.95 1.90 1.76 1.68 1.78 1.51 1.08 1.00 1.08 1.14 1.18 1.19 1.09 0.98 0.93
1.61 1.64 1.73 1.85 1.92 1.91 1.87 1.88 1.82 1.75 1.77 1.81 1.91 1.99 2.06 2.13 2.20 2.25 2.24 2.20 2.21 2.18 2.08 2.01 1.86 1.86 1.92 1.87 1.91 1.95 1.86 1.76 1.73 1.70 1.41 1.21 1.19 1.19 1.30 1.35 1.35 1.28 1.16
1.56 1.68 1.67 1.72 1.77 1.82 1.85 1.82 1.89 1.94 1.99 2.03 2.04 2.06 2.12 2.22 2.36 2.47 2.53 2.50 2.41 2.36 2.32 2.27 2.16 2.06 2.06 2.05 2.05 1.98 1.92 1.94 1.88 1.87 1.70 1.49 1.40 1.33 1.44 1.57 1.65 1.56 1.43
1.46 1.60 1.64 1.66 1.78 1.89 1.95 1.99 1.95 2.05 2.12 2.07 2.09 2.13 2.10 2.28 2.62 2.77 2.66 2.51 2.36 2.25 2.18 2.17 2.22 2.35 2.37 2.39 2.43 2.27 2.13 2.21 2.17 2.12 1.94 1.69 1.52 1.52 1.61 1.63 1.80 1.74 1.67
1.35 1.45 1.52 1.65 1.77 1.94 2.01 2.10 2.11 2.11 2.17 2.16 2.09 2.10 2.07 2.15 2.66 2.85 2.42 2.07 2.01 2.04 2.00 1.89 1.89 2.13 2.22 2.33 2.47 2.45 2.45 2.52 2.54 2.44 2.23 1.94 1.58 1.46 1.60 1.87 2.03 2.17 2.11
1.22 1.33 1.41 1.58 1.67 1.77 1.84 1.90 1.96 1.93 1.93 2.00 2.03 1.94 1.88 2.01 2.43 2.54 2.23 1.75 1.63 1.70 1.72 1.69 1.66 1.71 1.95 1.89 2.08 2.20 2.25 2.41 2.57 2.61 2.57 2.12 1.81 1.66 1.93 2.18 2.20 2.32 2.17
1.10 1.21 1.25 1.41 1.56 1.60 1.65 1.70 1.73 1.69 1.73 1.85 1.85 1.71 1.61 1.70 2.10 2.23 2.03 1.60 1.53 1.57 1.59 1.58 1.57 1.57 1.74 1.98 2.05 1.96 1.85 1.93 2.17 2.33 2.50 2.32 2.10 2.06 2.33 2.63 2.72 2.79 2.52
1.01 1.08 1.11 1.20 1.40 1.44 1.51 1.59 1.58 1.61 1.63 1.65 1.64 1.56 1.47 1.51 1.86 2.11 1.96 1.50 1.55 1.54 1.52 1.58 1.57 1.52 1.89 2.14 2.04 1.95 1.82 1.77 1.91 2.22 2.43 2.49 2.53 2.60 2.77 3.12 3.35 3.47 3.22
0.92 1.00 1.02 1.06 1.19 1.24 1.29 1.38 1.41 1.43 1.51 1.55 1.55 1.49 1.43 1.38 1.66 2.04 2.05 1.56 1.56 1.53 1.50 1.56 1.75 1.71 1.92 2.01 1.87 1.94 1.99 1.75 1.60 1.72 1.85 1.94 1.98 2.11 2.47 2.71 3.07 3.45 3.34
0.84 0.89 0.94 1.00 1.09 1.12 1.16 1.22 1.29 1.35 1.41 1.46 1.49 1.44 1.35 1.36 1.48 1.81 2.19 1.86 1.66 1.56 1.52 1.54 1.59 1.82 1.85 1.90 1.89 1.84 2.04 1.87 1.62 1.68 1.72 1.69 1.75 1.87 2.06 2.29 2.70 3.13 3.39
0.82 0.88 0.93 0.97 1.01 1.03 1.08 1.15 1.17 1.28 1.42 1.42 1.40 1.40 1.37 1.35 1.40 1.60 1.93 2.07 1.93 1.67 1.56 1.39 1.42 1.69 1.74 1.84 1.81 1.88 1.99 1.90 1.75 1.78 1.77 1.73 1.74 1.83 1.95 2.08 2.33 2.62 2.83
0.80 0.86 0.93 0.98 1.00 1.05 1.08 1.15 1.21 1.30 1.44 1.44 1.36 1.34 1.34 1.30 1.38 1.63 1.65 1.73 1.88 1.73 1.64 1.69 1.60 1.64 1.63 1.59 1.68 1.80 1.77 1.67 1.75 1.80 1.71 1.65 1.65 1.74 1.79 1.90 2.03 2.25 2.47
0.81 0.82 0.87 0.98 1.05 1.05 1.09 1.14 1.18 1.25 1.41 1.48 1.43 1.39 1.31 1.26 1.36 1.60 1.56 1.51 1.66 1.73 1.77 1.78 1.74 1.69 1.64 1.58 1.60 1.57 1.51 1.58 1.72 1.70 1.60 1.50 1.50 1.62 1.76 1.87 2.01 2.12 2.37
0.81 0.81 0.84 0.94 1.01 1.05 1.09 1.15 1.20 1.21 1.43 1.61 1.52 1.51 1.50 1.49 1.55 1.80 1.79 1.70 1.72 1.76 1.83 1.85 1.75 1.69 1.68 1.59 1.49 1.44 1.48 1.58 1.65 1.57 1.54 1.53 1.53 1.58 1.67 1.76 1.99 2.11 2.27
0.87 0.87 0.88 0.95 0.98 1.01 1.05 1.13 1.23 1.25 1.33 1.34 1.39 1.48 1.45 1.57 1.65 1.63 1.69 1.73 1.76 1.83 1.90 1.86 1.65 1.52 1.50 1.46 1.45 1.43 1.40 1.42 1.43 1.48 1.54 1.55 1.60 1.64 1.62 1.63 1.84 2.07 2.15
0.94 0.95 0.96 0.97 0.98 1.01 0.99 1.03 1.15 1.18 1.20 1.21 1.25 1.32 1.45 1.56 1.51 1.48 1.56 1.59 1.61 1.62 1.62 1.52 1.42 1.39 1.37 1.36 1.36 1.37 1.40 1.34 1.34 1.43 1.49 1.49 1.54 1.59 1.62 1.62 1.68 1.85 1.97
0.97 1.03 1.05 1.03 1.01 1.02 0.99 0.98 1.03 1.15 1.26 1.30 1.32 1.36 1.43 1.51 1.51 1.51 1.57 1.63 1.62 1.50 1.34 1.32 1.32 1.31 1.30 1.32 1.36 1.37 1.35 1.34 1.37 1.41 1.43 1.45 1.50 1.60 1.63 1.60 1.61 1.73 1.82
1.06 1.07 1.09 1.09 1.06 1.04 1.02 1.03 1.04 1.08 1.18 1.31 1.40 1.48 1.54 1.55 1.54 1.53 1.46 1.39 1.37 1.33 1.28 1.25 1.21 1.21 1.26 1.30 1.34 1.33 1.34 1.36 1.34 1.36 1.38 1.39 1.43 1.53 1.54 1.44 1.47 1.60 1.75
1.14 1.23 1.21 1.16 1.14 1.10 1.09 1.10 1.12 1.15 1.18 1.24 1.34 1.44 1.57 1.62 1.55 1.49 1.35 1.27 1.30 1.30 1.27 1.27 1.21 1.19 1.26 1.32 1.36 1.37 1.36 1.33 1.31 1.32 1.29 1.27 1.30 1.38 1.42 1.36 1.39 1.49 1.55
1.18 1.23 1.26 1.21 1.18 1.17 1.19 1.19 1.20 1.24 1.27 1.25 1.27 1.37 1.66 1.67 1.47 1.29 1.24 1.24 1.27 1.31 1.31 1.30 1.28 1.27 1.29 1.33 1.34 1.33 1.34 1.29 1.26 1.30 1.29 1.24 1.23 1.27 1.27 1.29 1.30 1.35 1.41
1.16 1.18 1.15 1.16 1.20 1.24 1.29 1.28 1.28 1.28 1.26 1.28 1.30 1.35 1.44 1.37 1.30 1.24 1.21 1.21 1.22 1.26 1.31 1.37 1.33 1.26 1.28 1.35 1.38 1.37 1.32 1.24 1.16 1.19 1.22 1.19 1.18 1.19 1.19 1.21 1.20 1.26 1.34
1.15 1.17 1.16 1.16 1.20 1.28 1.28 1.22 1.24 1.26 1.29 1.30 1.29 1.31 1.30 1.30 1.27 1.24 1.24 1.23 1.20 1.17 1.18 1.27 1.29 1.20 1.14 1.17 1.24 1.32 1.36 1.26 1.15 1.17 1.27 1.23 1.16 1.11 1.13 1.16 1.12 1.18 1.24
1.13 1.14 1.15 1.19 1.22 1.22 1.23 1.23 1.22 1.23 1.29 1.36 1.34 1.32 1.31 1.30 1.27 1.19 1.15 1.16 1.15 1.10 1.10 1.16 1.18 1.14 1.07 1.09 1.12 1.12 1.15 1.18 1.22 1.23 1.24 1.25 1.17 1.09 1.11 1.14 1.11 1.10 1.15
1.09 1.12 1.16 1.22 1.27 1.26 1.26 1.25 1.24 1.24 1.29 1.35 1.35 1.32 1.28 1.25 1.21 1.15 1.09 1.08 1.09 1.07 1.04 1.06 1.11 1.11 1.04 0.99 1.02 1.06 1.17 1.26 1.34 1.46 1.55 1.53 1.36 1.19 1.16 1.17 1.12 1.07 1.09
1.04 1.09 1.16 1.24 1.30 1.29 1.29 1.29 1.25 1.25 1.32 1.32 1.30 1.30 1.28 1.25 1.20 1.16 1.13 1.10 1.12 1.09 1.04 1.00 1.00 1.04 1.04 0.99 0.99 1.07 1.18 1.24 1.37 1.60 1.83 1.88 1.58 1.27 1.16 1.17 1.08 1.05 1.07